Location: Asis
(14.1331°N, 120.9056°E)
Time: 15:32:03
(UTC+00:00)

Meteor 1-24 Rocket - Visible Passes

Search period start: 19 April 2026 00:00
Search period end: 29 April 2026 00:00
Orbit: 788 x 926 km, 81.2° (Epoch: 19 April)

Date Brightness Start Highest point End Pass type
(mag) Time Alt. Az. Time Alt. Az. Time Alt. Az.
19 Apr 4.3 11:09:05 10° NNW 11:14:45 64° W 11:20:36 10° S visible
20 Apr 4.2 10:58:57 10° NNW 11:04:39 68° W 11:10:33 10° S visible
21 Apr 4.1 10:48:49 10° NNW 10:54:34 72° W 11:00:30 10° S visible
22 Apr 4.1 10:38:42 10° N 10:44:29 76° W 10:50:26 10° S visible
23 Apr 4.0 10:28:35 10° N 10:34:23 80° W 10:40:22 10° S visible
26 Apr 6.6 21:13:03 10° SE 21:16:08 16° E 21:19:12 10° NE visible
27 Apr 6.6 21:03:12 10° SE 21:06:02 15° E 21:08:51 10° ENE visible
28 Apr 6.6 20:53:22 10° ESE 20:55:56 14° E 20:58:29 10° ENE visible
